Location: Unspecified
(0.0000°N, 0.0000°E)
Time: 07:31:36
(UTC+00:00)

Tiangong - Pass Details

Date: 18 September 2021
Orbit: 381 x 386 km, 41.5° (Epoch: 18 September)

Event Time Altitude Azimuth Distance (km) Brightness Sun altitude
Exits shadow 05:23:08 - 236° (SW) 1,634 3.7 -7.8°
Reaches altitude 10° 05:23:44 10° 238° (WSW) 1,392 3.4 -7.6°
Maximum altitude 05:26:48 53° 316° (NW) 472 1.3 -6.8°
Drops below altitude 10° 05:29:52 10° 34° (NE) 1,389 4.4 -6.1°
Sets 05:31:58 0° 39° (NE) 2,240 5.6 -5.5°
